This demonstration page uses our WeatherBlox Daily Observations layout. Learn more.

Left ArrowRight Arrow

44.89941, -97.11507

Hourly Observations for June 4, 2016

Temp ( °F °C ) Dew Point ( °F °C ) Humidity (%) Winds ( mph kmh ) Pressure ( in mb ) Visibility ( mi km ) Precip ( " mm )
12:53 am 00:53 Clear 59 15 51 10.6 75 75 W 6 9 29.88 1012 10 16 0.00 0.00
1:53 am 01:53 Clear 60 15.6 52 11.1 75 75 W 9 15 29.86 1011 10 16 0.00 0.00
2:53 am 02:53 Clear 57 13.9 52 11.1 83 83 W 8 13 29.86 1011 10 16 0.00 0.00
3:53 am 03:53 Clear 59 15 53 11.7 81 81 WNW 10 17 29.85 1011 10 16 0.00 0.00
4:53 am 04:53 Clear 58 14.4 53 11.7 84 84 WNW 8 13 29.86 1011 10 16 0.00 0.00
5:53 am 05:53 Sunny 58 14.4 53 11.7 84 84 W 10 17 29.87 1011 10 16 0.00 0.00
6:17 am 06:17 Mostly Cloudy 59 15 54 12.2 83 83 WNW 14 22 29.85 1011 10 16 0.00 0.00
6:53 am 06:53 Cloudy 60 15.6 55 12.8 84 84 NW 15 24 29.87 1012 10 16 0.00 0.00
7:53 am 07:53 Cloudy 60 15.6 56 13.3 86 86 NW 16 26 29.88 1012 10 16 0.00 0.00
8:53 am 08:53 Cloudy 61 16.1 56 13.3 84 84 NW 17 28 29.89 1012 10 16 0.00 0.00
9:53 am 09:53 Cloudy 61 16.1 53 11.7 75 75 NNW 22 35 29.91 1013 10 16 0.00 0.00
10:53 am 10:53 Cloudy 60 15.6 53 11.7 78 78 NNW 20 31 29.91 1013 10 16 0.00 0.00
11:53 am 11:53 Cloudy 62 16.7 54 12.2 75 75 NNW 26 43 29.93 1013 10 16 0.00 0.00
12:43 pm 12:43 Cloudy 63 17.2 54 12.2 73 73 NNW 18 30 29.91 1013 10 16 0.00 0.00
12:53 pm 12:53 Cloudy 63 17.2 54 12.2 73 73 N 23 37 29.94 1014 10 16 0.00 0.00
1:37 pm 13:37 Cloudy 65 18.3 54 12.2 68 68 NNW 22 35 29.91 1013 10 16 0.00 0.00
1:53 pm 13:53 Cloudy 67 19.4 55 12.8 66 66 NW 22 35 29.93 1014 10 16 0.00 0.00
2:53 pm 14:53 Mostly Cloudy 70 21.1 55 12.8 59 59 N 23 37 29.92 1013 10 16 0.00 0.00
3:53 pm 15:53 Mostly Cloudy 73 22.8 55 12.8 53 53 NNW 21 33 29.91 1013 10 16 0.00 0.00
4:53 pm 16:53 Mostly Sunny 73 22.8 54 12.2 51 51 NNW 21 33 29.91 1013 10 16 0.00 0.00
5:53 pm 17:53 Mostly Cloudy 70 21.1 54 12.2 57 57 N 18 30 29.92 1013 10 16 0.00 0.00
6:53 pm 18:53 Cloudy 72 22.2 53 11.7 52 52 NNW 21 33 29.91 1013 10 16 0.00 0.00
7:53 pm 19:53 Sunny 69 20.6 53 11.7 57 57 N 14 22 29.92 1013 10 16 0.00 0.00
8:53 pm 20:53 Sunny 65 18.3 53 11.7 66 66 N 8 13 29.93 1014 10 16 0.00 0.00
9:53 pm 21:53 Clear 61 16.1 54 12.2 78 78 NNW 7 11 29.95 1014 10 16 0.00 0.00
10:53 pm 22:53 Clear 59 15 54 12.2 83 83 Calm 29.96 1015 10 16 0.00 0.00
11:53 pm 23:53 Clear 58 14.4 54 12.2 87 87 NW 3 6 29.95 1014 10 16 0.00 0.00

Powered by AerisWeather